Simultaneous Nadir Overpasses (SNOs) Predictions

Prediction of SNOs between LANDSAT-8 and NPP Satellite Orbit:

Table of predicted SNOs for the next 14.0 days since TLE Epoch: 7/20/2024
Index Date (LANDSAT-8) Time (LANDSAT-8) Lat,Lon (LANDSAT-8) SZA (LANDSAT-8 ) Date (NPP) Time (NPP) Lat,Lon (NPP) SZA (NPP ) Distance(km) Time Diff (sec)
1 07/20/2024 06:08:30 70.19, 84.35 49.62 07/20/2024 06:07:21 70.19, 84.31 49.64 1.56 69
2 07/20/2024 06:58:00 -70.07,-108.19 130.49 07/20/2024 06:58:02 -70.07,-108.18 130.49 0.58 2
3 07/20/2024 07:47:31 69.76, 59.02 49.23 07/20/2024 07:48:42 69.72, 59.65 49.16 24.86 71
4 07/22/2024 22:25:01 70.13,-159.86 50.10 07/22/2024 22:24:17 70.15,-159.86 50.12 2.08 44
5 07/22/2024 23:14:31 -70.01, 7.61 130.01 07/22/2024 23:14:58 -70.02, 7.65 130.01 2.09 27
6 07/25/2024 13:51:52 -70.89, 149.50 128.62 07/25/2024 13:50:44 -70.98, 147.26 128.44 82.24 68
7 07/25/2024 14:41:31 70.13, -43.97 50.67 07/25/2024 14:41:14 70.11, -44.05 50.66 3.68 17
8 07/25/2024 15:31:02 -69.96, 123.42 129.49 07/25/2024 15:31:55 -69.98, 123.47 129.47 2.82 53
9 07/28/2024 06:08:35 -70.14, -95.72 128.73 07/28/2024 06:07:26 -70.17, -95.68 128.69 3.24 69
10 07/28/2024 06:58:02 70.04, 71.78 51.19 07/28/2024 06:58:10 70.04, 71.83 51.19 1.92 8
11 07/28/2024 07:47:36 -69.71,-121.05 129.12 07/28/2024 07:48:47 -69.69,-120.34 129.17 27.50 71
12 07/30/2024 22:25:04 -70.11, 20.13 128.11 07/30/2024 22:24:22 -70.10, 20.18 128.12 2.72 42
13 07/30/2024 23:14:31 70.01,-172.38 51.80 07/30/2024 23:15:07 70.03,-172.40 51.82 2.34 36
14 08/02/2024 13:51:55 70.53, -31.00 52.97 08/02/2024 13:50:44 70.61, -32.17 53.09 43.93 71
15 08/02/2024 14:41:31 -70.10, 135.99 127.45 08/02/2024 14:41:18 -70.10, 135.95 127.44 1.68 13
16 08/02/2024 15:30:58 69.99, -56.52 52.46 08/02/2024 15:32:02 69.98, -56.56 52.45 1.89 64



Historial Predications of SNOs between LANDSAT-8 and NPP
